Temperature
0 0 0 0 0 -0 -0 -1 -1 -1 -1 -1 -1 -1 -1 -1 -1 -1 -1 -1 -1 -1 -1 -1 -0 -0 -0 -0 -0 -0 -0 -0 -0 0 1 1 1 1 2 2 2 2 2
-0 -0 -0 -0 -0 -1 -1 -1 -1 -1 -1 -1 -1 -1 -1 -1 -1 -1 -1 -1 -1 -1 -1 -1 -1 -1 -1 -0 -1 -1 -0 -0 -0 -0 0 0 1 1 1 1 1 1 1
-0 -0 -1 -1 -1 -1 -1 -1 -1 -1 -1 -1 -1 -2 -2 -2 -2 -2 -2 -2 -2 -2 -2 -1 -1 -1 -1 -1 -1 -1 -1 -1 -1 -1 -0 -0 -0 0 0 0 1 1 1
-1 -1 -1 -1 -2 -2 -2 -2 -2 -2 -2 -2 -2 -2 -2 -2 -2 -2 -2 -2 -2 -2 -2 -2 -2 -1 -1 -1 -1 -1 -1 -1 -1 -1 -1 -1 -1 -0 -0 -0 0 0 0
-1 -1 -2 -2 -2 -2 -2 -2 -2 -2 -2 -2 -2 -2 -2 -2 -2 -2 -2 -2 -2 -2 -2 -2 -2 -2 -2 -2 -2 -2 -2 -1 -2 -2 -1 -1 -1 -1 -1 -1 -1 -0 -0
-2 -2 -2 -2 -2 -2 -2 -2 -2 -2 -2 -2 -2 -2 -3 -3 -3 -3 -3 -3 -2 -2 -2 -2 -2 -2 -2 -2 -2 -2 -2 -2 -2 -2 -2 -2 -1 -1 -1 -1 -1 -1 -1
-2 -2 -2 -3 -3 -2 -3 -3 -3 -3 -3 -3 -3 -3 -3 -3 -3 -3 -3 -3 -3 -3 -3 -3 -3 -2 -2 -2 -2 -2 -2 -2 -2 -2 -2 -2 -2 -2 -2 -1 -1 -2 -1
-3 -3 -3 -3 -3 -3 -3 -3 -3 -3 -3 -3 -3 -3 -3 -3 -3 -3 -3 -3 -3 -3 -3 -3 -3 -3 -2 -2 -2 -2 -2 -2 -2 -2 -2 -2 -2 -2 -2 -2 -2 -2 -2
-3 -3 -3 -3 -3 -3 -3 -3 -4 -4 -4 -4 -4 -4 -4 -3 -3 -3 -3 -3 -3 -3 -3 -3 -3 -3 -3 -3 -3 -2 -2 -2 -2 -2 -2 -3 -3 -3 -2 -2 -3 -3 -3
-4 -4 -4 -4 -4 -4 -4 -4 -4 -4 -4 -4 -4 -4 -4 -4 -4 -4 -4 -4 -3 -3 -3 -3 -3 -3 -3 -3 -3 -2 -2 -2 -3 -3 -3 -3 -3 -3 -3 -3 -3 -3 -3
-4 -4 -4 -4 -4 -4 -4 -4 -4 -4 -4 -4 -4 -4 -4 -4 -4 -4 -4 -4 -4 -4 -4 -3 -3 -3 -3 -3 -3 -3 -3 -3 -3 -3 -3 -3 -3 -3 -3 -3 -3 -3 -3
-4 -5 -5 -5 -5 -5 -5 -5 -5 -5 -5 -5 -5 -5 -5 -5 -4 -4 -4 -4 -4 -4 -4 -3 -3 -3 -3 -3 -3 -3 -3 -3 -3 -3 -3 -4 -4 -4 -3 -3 -3 -4 -4
-5 -5 -5 -5 -5 -5 -5 -5 -5 -5 -5 -5 -5 -6 -5 -5 -5 -5 -5 -4 -4 -4 -4 -4 -4 -4 -3 -3 -3 -3 -3 -3 -4 -3 -4 -4 -4 -4 -4 -4 -4 -4 -4
-5 -5 -5 -5 -5 -5 -6 -6 -6 -6 -6 -6 -6 -6 -6 -5 -5 -5 -5 -5 -5 -4 -4 -4 -4 -4 -4 -4 -4 -4 -4 -4 -4 -4 -4 -4 -4 -4 -4 -4 -4 -4 -4
-5 -5 -5 -5 -6 -6 -6 -6 -6 -6 -6 -6 -6 -6 -6 -6 -5 -5 -5 -5 -5 -5 -5 -4 -4 -4 -4 -4 -4 -4 -4 -4 -4 -4 -4 -4 -4 -4 -4 -4 -4 -5 -5
-6 -6 -6 -6 -6 -6 -6 -6 -6 -6 -6 -6 -6 -6 -6 -6 -6 -6 -5 -5 -5 -5 -5 -5 -5 -5 -5 -5 -5 -5 -5 -5 -5 -5 -5 -5 -5 -5 -5 -5 -5 -5 -5
-6 -6 -6 -6 -7 -7 -7 -7 -6 -6 -6 -6 -6 -6 -6 -6 -6 -6 -6 -5 -5 -5 -5 -5 -5 -5 -5 -5 -5 -5 -5 -5 -5 -5 -5 -5 -5 -5 -5 -5 -5 -5 -5
-6 -7 -7 -7 -7 -7 -7 -7 -7 -7 -7 -6 -6 -6 -6 -6 -6 -6 -6 -5 -5 -5 -5 -6 -6 -5 -5 -5 -5 -5 -5 -5 -5 -5 -5 -5 -5 -5 -6 -6 -6 -6 -6
-7 -7 -7 -7 -7 -7 -7 -7 -7 -7 -7 -7 -7 -6 -6 -6 -6 -6 -6 -6 -6 -6 -6 -6 -6 -6 -6 -6 -6 -6 -6 -6 -6 -6 -6 -6 -6 -6 -6 -6 -6 -6 -6
-7 -7 -7 -7 -7 -7 -8 -8 -8 -8 -7 -7 -7 -7 -7 -7 -6 -6 -6 -6 -6 -6 -6 -6 -6 -6 -6 -6 -6 -6 -6 -6 -6 -6 -6 -6 -6 -6 -6 -6 -6 -6 -6
-7 -7 -7 -7 -8 -8 -8 -8 -8 -8 -8 -8 -7 -7 -7 -7 -7 -7 -7 -7 -7 -7 -7 -6 -6 -6 -6 -6 -6 -6 -6 -6 -6 -6 -6 -6 -6 -6 -6 -6 -6 -6 -6
-7 -7 -8 -8 -8 -8 -8 -8 -8 -8 -8 -8 -8 -8 -7 -7 -7 -7 -7 -7 -7 -7 -7 -7 -7 -7 -7 -7 -7 -7 -6 -6 -6 -6 -7 -7 -7 -7 -6 -6 -7 -7 -7
-7 -8 -8 -8 -8 -8 -8 -8 -8 -8 -8 -8 -8 -8 -8 -8 -8 -8 -8 -8 -7 -7 -7 -7 -7 -7 -7 -7 -7 -7 -7 -7 -7 -7 -7 -7 -7 -7 -7 -7 -7 -7 -7
-8 -8 -8 -8 -8 -8 -8 -8 -8 -8 -8 -8 -8 -8 -8 -8 -8 -8 -8 -8 -8 -7 -7 -7 -7 -7 -7 -7 -7 -7 -7 -7 -7 -7 -7 -7 -7 -7 -7 -7 -7 -7 -7
-8 -8 -8 -8 -8 -9 -9 -9 -9 -9 -9 -9 -9 -8 -8 -8 -8 -8 -8 -8 -8 -8 -8 -7 -7 -7 -7 -7 -7 -7 -7 -7 -7 -7 -7 -7 -7 -7 -7 -7 -7 -7 -7
-8 -8 -8 -8 -9 -9 -9 -9 -9 -9 -9 -9 -9 -9 -8 -8 -8 -8 -8 -8 -8 -8 -8 -7 -7 -7 -7 -7 -7 -7 -7 -7 -7 -7 -7 -7 -7 -7 -7 -7 -7 -7 -7
Wind_Speed
1 0 1 1 1 1 1 1 1 1 2 2 2 2 2 2 2 2 3 2 2 3 3 3 3 3 2 2 3 3 3 3 5 5 3 3 3 3 4 5 5 4 4
0 0 1 1 1 1 1 2 2 2 2 2 2 2 2 2 3 3 3 3 3 3 3 3 4 3 3 3 3 3 3 4 4 7 5 4 4 4 3 4 4 4 4
0 0 1 1 1 1 1 2 2 2 2 3 2 2 2 2 3 3 3 4 4 4 4 4 4 4 4 3 4 3 3 4 4 5 5 4 3 3 3 3 3 3 4
1 0 1 1 1 1 1 2 2 2 2 2 3 3 3 3 3 4 3 4 4 4 4 4 4 4 5 5 4 4 4 4 4 4 4 4 3 3 2 2 3 2 2
1 1 1 1 1 1 2 2 2 2 3 3 3 3 3 3 3 3 3 4 4 4 4 4 4 5 6 5 5 4 4 4 4 4 4 3 3 3 2 1 2 2 2
1 1 1 1 1 1 2 2 2 2 2 3 3 3 3 3 5 6 4 4 4 4 4 4 5 5 6 8 8 7 5 4 4 4 4 4 4 4 2 2 1 1 2
1 1 1 1 1 2 2 2 2 2 2 3 3 3 3 4 6 6 6 4 4 4 4 4 4 5 5 5 6 7 7 7 6 5 4 5 4 4 3 2 2 2 2
1 1 1 1 2 2 2 2 3 2 3 3 3 4 4 5 6 6 6 4 4 4 4 4 5 5 5 4 4 4 4 4 5 4 4 4 4 3 3 3 2 1 1
1 1 2 2 2 2 3 3 3 3 3 3 3 4 4 5 7 7 6 3 3 4 4 4 4 4 6 5 4 4 4 4 4 5 5 5 5 4 3 1 1 0 1
2 2 2 2 2 3 3 3 2 3 3 3 4 4 4 5 7 7 6 3 4 4 4 4 5 6 7 6 3 3 4 4 2 2 2 3 3 3 3 2 2 2 1
2 2 2 3 3 3 2 2 3 3 3 3 4 4 4 5 6 7 7 3 4 4 4 4 4 6 6 7 5 4 5 3 2 2 2 2 1 1 2 1 1 2 1
2 2 2 3 3 2 2 3 3 3 3 4 4 4 4 4 6 6 8 7 6 4 5 4 4 5 6 7 5 4 5 3 1 1 1 1 1 1 1 0 0 0 1
2 2 3 3 3 2 2 3 3 3 3 4 3 4 4 4 5 8 8 8 8 5 4 6 6 5 5 4 4 4 2 1 1 1 1 1 1 0 1 1 1 2 2
2 2 3 3 3 3 2 2 2 3 3 4 4 4 4 4 4 4 4 5 6 5 4 5 5 4 4 3 3 2 1 1 1 2 1 1 0 0 0 1 1 1 1
2 3 3 3 3 3 3 3 3 3 3 4 3 4 4 4 6 8 5 4 3 3 3 2 2 2 2 2 2 1 1 0 1 0 0 0 0 0 0 0 1 1 0
2 2 2 2 2 2 3 4 5 5 7 7 7 6 5 7 9 9 9 8 7 5 3 2 2 2 2 2 1 1 1 1 1 0 1 1 0 0 0 0 0 0 0
2 3 3 3 3 3 3 3 4 5 7 7 7 8 7 8 9 9 9 7 6 4 3 2 2 2 2 1 1 1 1 1 1 0 1 1 1 0 0 0 0 0 0
2 3 3 2 3 3 3 3 3 4 5 4 6 7 8 8 8 8 7 5 4 3 2 2 2 2 1 1 1 1 1 1 0 0 1 1 1 1 0 0 1 1 0
2 2 2 2 2 3 3 3 3 4 4 4 4 5 7 7 7 6 5 3 2 3 3 2 2 2 2 1 1 1 1 1 1 1 1 1 1 1 1 0 0 1 0
2 4 3 2 2 3 3 3 3 3 4 4 4 4 4 4 3 4 4 3 3 3 3 3 2 2 2 2 1 1 1 1 1 0 1 1 1 1 1 1 1 0 0
2 3 4 3 2 2 2 3 3 3 4 4 4 5 6 3 3 3 3 3 3 3 3 3 2 2 2 2 1 1 1 1 1 1 1 1 1 1 1 1 1 0 0
2 2 2 2 2 2 2 2 3 3 4 4 4 5 7 4 3 3 3 3 3 3 3 3 2 2 2 1 1 1 1 1 1 1 1 1 1 1 1 1 0 0 0
2 2 2 2 2 4 3 3 3 3 3 4 4 4 4 3 3 4 4 3 3 3 3 3 2 2 2 2 2 2 2 2 1 1 1 1 1 1 1 1 1 1 0
2 2 2 2 2 2 3 3 3 3 3 4 4 4 4 3 3 4 4 3 3 3 3 3 3 3 3 3 2 2 2 2 2 2 2 2 1 1 1 1 1 1 1
2 2 2 2 2 3 3 3 3 3 3 4 4 4 3 3 3 3 3 3 3 3 4 4 3 3 3 3 3 2 2 2 2 1 2 2 1 1 2 1 1 1 1
2 2 2 2 2 2 3 3 3 3 3 4 3 3 3 3 3 3 3 3 3 3 3 3 4 4 4 3 3 2 2 1 1 1 2 2 1 1 1 1 1 1 1
Wind_Direction
223 265 311 316 318 321 311 311 322 314 308 290 287 286 286 286 292 294 289 287 281 288 292 282 280 283 285 286 288 288 286 279 279 289 288 295 295 294 299 298 293 290 280
233 272 286 305 314 318 317 323 331 309 295 294 292 282 290 293 290 289 291 283 275 279 287 290 287 285 282 281 281 281 283 281 277 285 291 298 295 288 293 296 301 302 284
325 244 279 296 306 298 312 321 317 306 299 296 290 276 274 279 283 283 283 276 270 272 278 282 283 277 273 279 278 279 287 292 284 279 286 292 297 298 303 300 307 300 300
333 253 253 274 288 300 306 300 302 308 302 286 282 279 272 272 275 278 281 280 273 271 272 269 273 270 269 269 270 273 282 288 287 281 282 286 294 298 303 309 318 312 305
268 277 273 278 282 293 302 300 299 305 307 297 281 280 279 271 270 285 283 284 281 278 275 271 271 274 278 277 274 268 270 273 278 281 280 284 287 297 291 294 304 320 320
244 259 293 300 303 295 291 292 296 295 294 299 297 286 278 285 292 297 297 277 282 280 281 283 279 274 281 284 282 280 273 267 269 268 272 273 278 279 278 281 284 305 301
274 291 301 308 303 301 304 300 287 285 289 288 290 294 289 288 294 294 304 295 277 276 276 278 283 280 281 276 281 286 282 274 264 254 254 261 271 279 265 265 268 259 267
291 302 307 308 304 307 301 291 286 287 290 285 289 290 289 296 305 305 305 291 274 272 274 273 275 279 275 277 272 276 276 275 267 256 245 263 271 274 250 241 251 265 297
296 306 309 298 289 291 292 295 300 299 297 296 294 291 288 295 301 304 310 286 279 281 280 275 273 278 282 289 274 269 278 285 276 263 265 274 287 293 288 264 271 207 306
304 314 315 305 291 287 289 297 304 299 297 300 301 294 291 288 294 301 304 284 284 289 291 284 277 280 290 287 259 255 265 271 275 298 298 299 295 292 293 258 223 211 240
335 324 316 310 300 293 296 297 300 302 306 302 295 292 287 296 302 300 300 288 279 285 286 284 281 284 288 287 272 251 261 272 262 264 281 296 307 306 297 267 237 207 215
339 323 314 310 307 309 305 302 302 304 305 303 303 305 302 304 307 301 305 302 298 279 277 278 282 291 291 289 277 274 279 280 259 257 267 284 291 297 294 240 286 310 273
335 323 317 312 309 307 304 302 302 303 302 302 302 303 309 315 314 312 311 310 307 295 286 294 301 307 306 294 289 289 281 246 225 233 247 264 276 224 110 62 46 29 359
321 313 311 314 315 313 308 306 302 300 298 301 301 302 309 315 315 318 316 312 310 308 303 303 307 314 317 316 314 308 274 219 212 221 233 268 323 41 111 117 100 58 25
323 318 315 314 311 314 315 311 303 285 290 295 291 291 298 301 307 315 317 312 313 309 323 326 323 328 331 340 344 350 358 320 258 232 226 260 315 358 20 85 100 81 1
323 318 311 312 314 314 311 315 313 301 302 301 297 296 298 302 312 317 318 318 324 333 341 321 308 313 309 313 315 321 333 304 272 220 195 201 232 263 336 23 39 103 284
313 313 316 323 322 316 314 314 317 322 316 310 307 307 306 308 312 313 317 317 322 336 339 320 314 311 312 322 329 319 299 289 281 212 213 232 241 236 240 265 306 276 300
313 309 315 315 315 314 313 313 312 317 324 324 319 319 320 317 317 319 325 333 333 337 333 320 312 311 317 328 328 320 322 325 295 260 256 234 205 215 237 251 222 213 246
308 306 310 312 313 313 314 315 317 318 318 321 327 329 328 324 323 331 342 341 327 326 330 325 321 320 320 322 318 310 303 298 293 266 252 227 197 189 221 242 234 269 272
299 303 312 307 304 308 314 317 319 319 319 322 324 326 332 336 340 342 346 343 329 322 320 316 315 312 313 315 315 313 317 325 324 290 237 228 209 195 215 222 224 224 240
302 303 309 313 309 307 310 312 313 315 317 318 317 319 330 332 328 328 330 333 324 319 316 310 309 310 311 313 307 303 298 298 298 292 277 244 211 221 225 217 223 213 194
295 299 301 305 309 306 308 306 310 312 313 313 316 319 327 331 326 324 323 323 323 318 311 308 306 307 305 300 291 289 287 282 273 260 266 265 233 231 221 206 194 187 187
280 286 295 300 305 304 308 308 307 308 309 309 311 316 320 321 320 318 317 322 325 322 317 310 302 304 311 303 283 261 254 255 253 238 227 235 230 221 214 213 211 204 210
274 279 286 294 302 303 301 301 303 304 304 305 307 306 309 312 312 312 316 319 321 317 317 316 308 305 311 314 311 292 268 255 238 222 212 209 217 218 207 197 203 220 206
275 278 282 284 287 291 296 299 301 301 300 302 304 306 307 307 308 310 314 316 316 315 316 319 320 318 314 317 313 304 283 262 242 201 187 192 205 205 194 188 192 189 170
269 276 280 282 281 284 286 290 295 301 301 299 299 301 302 303 304 308 313 316 317 315 313 318 322 322 317 317 313 303 288 265 230 183 155 165 191 203 188 188 184 179 160
Height
1480 1480 1480 1479 1479 1478 1477 1477 1476 1476 1475 1475 1474 1474 1474 1474 1474 1473 1473 1473 1473 1472 1472 1472 1472 1472 1472 1472 1471 1471 1471 1471 1468 1466 1466 1465 1464 1463 1461 1460 1459 1458 1458
1477 1477 1477 1476 1476 1475 1475 1474 1474 1473 1473 1472 1472 1472 1471 1471 1471 1471 1470 1470 1470 1470 1469 1469 1469 1469 1468 1468 1468 1468 1467 1467 1466 1463 1461 1460 1460 1459 1457 1456 1455 1455 1454
1475 1474 1474 1474 1473 1473 1472 1472 1471 1471 1470 1470 1469 1469 1469 1468 1468 1468 1468 1468 1467 1467 1466 1466 1466 1465 1465 1465 1464 1464 1463 1463 1462 1460 1457 1457 1456 1455 1454 1453 1451 1451 1451
1473 1472 1471 1471 1470 1470 1470 1469 1468 1468 1467 1467 1467 1466 1466 1466 1465 1465 1465 1464 1464 1464 1463 1463 1462 1462 1462 1461 1461 1460 1459 1458 1458 1456 1454 1453 1452 1451 1450 1449 1447 1447 1447
1470 1469 1469 1468 1468 1467 1467 1466 1466 1465 1465 1465 1464 1464 1463 1463 1463 1462 1462 1462 1461 1460 1460 1459 1459 1459 1458 1458 1457 1456 1456 1455 1454 1452 1451 1450 1449 1448 1446 1445 1444 1444 1444
1467 1467 1466 1466 1465 1465 1464 1463 1463 1463 1462 1462 1462 1461 1461 1460 1460 1460 1459 1458 1458 1457 1456 1456 1455 1455 1454 1454 1454 1453 1452 1451 1450 1449 1447 1446 1445 1444 1443 1442 1442 1441 1441
1464 1464 1464 1463 1463 1462 1461 1461 1460 1460 1460 1459 1459 1458 1458 1458 1457 1457 1456 1455 1454 1454 1453 1452 1452 1451 1451 1450 1449 1448 1448 1447 1447 1446 1444 1443 1442 1441 1440 1439 1439 1438 1438
1462 1461 1461 1461 1460 1459 1459 1458 1458 1457 1457 1456 1456 1455 1455 1455 1454 1454 1453 1452 1451 1451 1450 1449 1449 1448 1447 1447 1446 1445 1444 1443 1442 1442 1441 1440 1439 1438 1438 1437 1436 1436 1436
1459 1459 1459 1458 1458 1457 1456 1456 1455 1455 1454 1453 1453 1452 1452 1452 1451 1451 1450 1449 1448 1447 1447 1446 1445 1445 1444 1444 1442 1441 1440 1439 1439 1438 1438 1437 1436 1436 1435 1434 1433 1433 1432
1457 1457 1457 1456 1455 1455 1454 1453 1453 1452 1451 1451 1450 1450 1449 1448 1448 1448 1447 1446 1444 1443 1443 1442 1442 1441 1441 1440 1439 1438 1436 1436 1435 1434 1434 1433 1433 1432 1432 1432 1431 1431 1430
1455 1455 1454 1454 1453 1452 1452 1451 1450 1449 1449 1448 1448 1447 1446 1446 1445 1444 1444 1443 1441 1440 1439 1438 1438 1437 1437 1436 1436 1435 1434 1433 1432 1431 1431 1430 1430 1429 1429 1429 1429 1429 1428
1454 1453 1452 1452 1451 1450 1449 1449 1448 1447 1446 1445 1445 1444 1443 1443 1442 1441 1440 1440 1439 1437 1436 1435 1435 1434 1433 1433 1432 1431 1431 1430 1429 1429 1428 1428 1427 1427 1427 1427 1427 1427 1427
1452 1451 1451 1450 1449 1448 1448 1447 1446 1445 1444 1443 1442 1441 1440 1440 1439 1438 1437 1436 1435 1434 1433 1432 1431 1431 1430 1429 1429 1428 1428 1427 1426 1426 1426 1426 1426 1425 1425 1425 1425 1425 1425
1450 1450 1449 1448 1447 1447 1446 1445 1444 1443 1442 1441 1440 1439 1438 1437 1436 1435 1434 1433 1432 1431 1430 1429 1428 1428 1427 1426 1426 1425 1425 1424 1424 1424 1424 1424 1424 1424 1424 1423 1423 1423 1423
1449 1448 1447 1446 1445 1445 1444 1443 1442 1441 1441 1440 1438 1437 1436 1434 1434 1433 1432 1430 1429 1428 1426 1426 1425 1424 1424 1423 1423 1423 1423 1423 1423 1423 1423 1423 1423 1422 1422 1422 1421 1421 1420
1447 1446 1445 1445 1444 1443 1442 1441 1440 1440 1439 1437 1436 1436 1434 1433 1432 1431 1430 1428 1427 1426 1425 1423 1423 1422 1422 1421 1421 1421 1421 1421 1421 1421 1421 1421 1421 1421 1421 1421 1420 1420 1419
1445 1444 1444 1443 1442 1441 1440 1439 1438 1437 1436 1435 1434 1433 1432 1431 1430 1429 1428 1426 1425 1424 1423 1422 1421 1421 1420 1420 1420 1420 1420 1420 1420 1420 1420 1420 1420 1419 1419 1419 1419 1419 1419
1444 1443 1442 1441 1441 1440 1439 1438 1436 1435 1433 1432 1432 1431 1430 1429 1428 1427 1426 1424 1423 1422 1421 1420 1420 1419 1419 1419 1419 1419 1419 1419 1419 1419 1419 1419 1418 1418 1418 1418 1418 1418 1418
1442 1441 1441 1440 1439 1438 1437 1436 1435 1434 1432 1430 1429 1429 1428 1427 1426 1425 1424 1422 1421 1421 1420 1419 1419 1418 1418 1418 1418 1418 1418 1418 1418 1418 1418 1417 1417 1417 1417 1417 1417 1417 1417
1440 1440 1439 1438 1437 1437 1436 1435 1433 1432 1431 1429 1428 1427 1426 1425 1423 1423 1422 1421 1420 1419 1419 1418 1417 1417 1417 1417 1417 1416 1416 1416 1416 1416 1416 1416 1416 1416 1416 1416 1416 1416 1416
1439 1438 1438 1437 1436 1435 1434 1433 1432 1430 1429 1428 1427 1426 1425 1424 1422 1421 1420 1420 1419 1418 1418 1417 1416 1416 1415 1415 1415 1415 1415 1415 1415 1415 1415 1415 1415 1415 1415 1415 1415 1415 1415
1437 1436 1436 1435 1434 1433 1432 1431 1430 1429 1427 1426 1425 1424 1423 1422 1421 1420 1419 1418 1418 1417 1416 1415 1415 1414 1414 1414 1413 1413 1413 1413 1413 1413 1413 1413 1414 1414 1414 1414 1414 1414 1414
1435 1434 1434 1433 1432 1431 1430 1429 1428 1427 1426 1425 1424 1422 1422 1421 1420 1419 1418 1417 1416 1415 1414 1414 1413 1412 1412 1412 1412 1412 1411 1411 1412 1412 1412 1412 1412 1413 1413 1413 1413 1413 1413
1433 1432 1431 1431 1430 1429 1428 1427 1426 1425 1424 1423 1422 1421 1420 1419 1418 1417 1417 1416 1415 1414 1413 1412 1411 1411 1410 1410 1410 1410 1410 1410 1410 1410 1410 1411 1411 1411 1412 1412 1412 1413 1413
1431 1430 1429 1429 1428 1427 1426 1425 1424 1423 1422 1421 1420 1419 1419 1418 1417 1416 1415 1414 1413 1412 1411 1411 1410 1409 1409 1408 1408 1408 1408 1408 1409 1409 1409 1409 1410 1410 1411 1411 1411 1412 1412
1428 1428 1427 1427 1426 1425 1424 1423 1422 1421 1420 1420 1419 1418 1417 1416 1415 1414 1413 1412 1411 1410 1410 1409 1409 1408 1407 1407 1407 1406 1407 1407 1407 1407 1408 1408 1408 1409 1409 1410 1410 1411 1411